When you browse on this site, cookies collect data to enhance your experience and personalize the content and advertising you see.
Visit our Privacy Policy to learn more. By continuing to use the site, you agree to this use of cookies and data.
  • Em Portugal
  • Lista de países
  • Para 7 dias
  • Temperatura da água
  • Mapas de satélite
  • Mapa do tempo
  • Widgets de tempo
  • user-avatar
    Iniciar Sessão

    Previsão horária em Molodushkino

    Hoje, 20 Julho, Sábado

    Tempo Temperatura Precipitação Vento Pressão Humidade
    00:00 +14°C° 0.1 mm 3 m/s 735 mmHg 97%
    01:00 +14°C° 0.1 mm 3 m/s 735 mmHg 98%
    02:00 +14°C° 0.1 mm 3 m/s 735 mmHg 98%
    03:00 +14°C° 0.3 mm 3 m/s 736 mmHg 98%
    04:00 +14°C° 0.3 mm 3 m/s 736 mmHg 98%
    05:00 +15°C° 0.3 mm 2 m/s 736 mmHg 98%
    06:00 +14°C° 0.4 mm 3 m/s 736 mmHg 97%
    07:00 +16°C° 0.4 mm 3 m/s 737 mmHg 96%
    08:00 +16°C° 0.4 mm 3 m/s 737 mmHg 95%
    09:00 +16°C° 0.4 mm 3 m/s 737 mmHg 95%
    10:00 +16°C° 0.4 mm 3 m/s 738 mmHg 95%
    11:00 +16°C° 0.4 mm 3 m/s 738 mmHg 96%
    12:00 +17°C° 0.5 mm 3 m/s 738 mmHg 94%
    13:00 +18°C° 0.5 mm 3 m/s 738 mmHg 92%
    14:00 +18°C° 0.5 mm 3 m/s 738 mmHg 90%
    15:00 +18°C° 0.6 mm 3 m/s 739 mmHg 90%
    16:00 +19°C° 0.6 mm 3 m/s 739 mmHg 90%
    17:00 +19°C° 0.6 mm 3 m/s 739 mmHg 89%
    18:00 +18°C° 0.2 mm 3 m/s 739 mmHg 91%
    19:00 +17°C° 0.2 mm 2 m/s 739 mmHg 93%
    20:00 +16°C° 0.2 mm 2 m/s 739 mmHg 95%
    21:00 +15°C° 0 mm 2 m/s 740 mmHg 96%
    22:00 +15°C° 0 mm 2 m/s 740 mmHg 96%
    23:00 +14°C° 0 mm 2 m/s 740 mmHg 97%

    Amanhã, 21 Julho, Domingo

    Tempo Temperatura Precipitação Vento Pressão Humidade
    00:00 +13°C° 0 mm 2 m/s 740 mmHg 97%
    01:00 +13°C° 0 mm 2 m/s 740 mmHg 98%
    02:00 +13°C° 0 mm 2 m/s 741 mmHg 98%
    03:00 +13°C° 0 mm 2 m/s 741 mmHg 98%
    04:00 +13°C° 0 mm 2 m/s 741 mmHg 98%
    05:00 +13°C° 0 mm 1 m/s 741 mmHg 99%
    06:00 +15°C° 0 mm 1 m/s 741 mmHg 95%
    07:00 +16°C° 0 mm 2 m/s 741 mmHg 91%
    08:00 +18°C° 0 mm 2 m/s 741 mmHg 88%
    09:00 +19°C° 0.4 mm 2 m/s 742 mmHg 82%
    10:00 +20°C° 0.4 mm 2 m/s 742 mmHg 77%
    11:00 +21°C° 0.4 mm 2 m/s 742 mmHg 72%
    12:00 +21°C° 0.7 mm 2 m/s 741 mmHg 72%
    13:00 +23°C° 0.7 mm 2 m/s 741 mmHg 72%
    14:00 +23°C° 0.7 mm 1 m/s 741 mmHg 73%
    15:00 +23°C° 1.2 mm 1 m/s 741 mmHg 77%
    16:00 +22°C° 1.2 mm 1 m/s 741 mmHg 80%
    17:00 +22°C° 1.2 mm 1 m/s 741 mmHg 84%
    18:00 +20°C° 0.2 mm 1 m/s 741 mmHg 87%
    19:00 +19°C° 0.2 mm 1 m/s 741 mmHg 89%
    20:00 +18°C° 0.2 mm 1 m/s 741 mmHg 91%
    21:00 +16°C° 0 mm 1 m/s 741 mmHg 92%
    22:00 +15°C° 0 mm 1 m/s 741 mmHg 93%
    23:00 +13°C° 0 mm 0 m/s 741 mmHg 93%

    Depois de amanhã, 22 Julho, Segunda-feira

    Tempo Temperatura Precipitação Vento Pressão Humidade
    00:00 +13°C° 0 mm 0 m/s 741 mmHg 93%
    01:00 +12°C° 0 mm 0 m/s 741 mmHg 93%
    02:00 +12°C° 0 mm 0 m/s 741 mmHg 94%
    03:00 +12°C° 0 mm 0 m/s 741 mmHg 93%
    04:00 +13°C° 0 mm 0 m/s 741 mmHg 93%
    05:00 +13°C° 0 mm 0 m/s 741 mmHg 93%
    06:00 +16°C° 0 mm 1 m/s 741 mmHg 87%
    07:00 +19°C° 0 mm 1 m/s 740 mmHg 81%
    08:00 +21°C° 0 mm 1 m/s 740 mmHg 75%
    09:00 +22°C° 0 mm 1 m/s 740 mmHg 67%
    10:00 +24°C° 0 mm 1 m/s 740 mmHg 58%
    11:00 +25°C° 0 mm 1 m/s 740 mmHg 50%
    12:00 +25°C° 0 mm 1 m/s 740 mmHg 50%
    13:00 +25°C° 0 mm 2 m/s 740 mmHg 50%
    14:00 +25°C° 0 mm 2 m/s 740 mmHg 49%
    15:00 +25°C° 0 mm 2 m/s 740 mmHg 52%
    16:00 +25°C° 0 mm 2 m/s 739 mmHg 54%
    17:00 +24°C° 0 mm 2 m/s 739 mmHg 56%
    18:00 +23°C° 0 mm 2 m/s 739 mmHg 64%
    19:00 +20°C° 0 mm 2 m/s 739 mmHg 72%
    20:00 +18°C° 0 mm 2 m/s 739 mmHg 80%
    21:00 +17°C° 0 mm 2 m/s 739 mmHg 80%
    22:00 +16°C° 0 mm 2 m/s 739 mmHg 81%
    23:00 +15°C° 0 mm 2 m/s 739 mmHg 81%

    23 Julho, Terça-feira

    Tempo Temperatura Precipitação Vento Pressão Humidade
    00:00 +15°C° 0 mm 2 m/s 739 mmHg 81%
    01:00 +14°C° 0 mm 1 m/s 739 mmHg 81%
    02:00 +14°C° 0 mm 1 m/s 739 mmHg 81%
    03:00 +14°C° 0 mm 2 m/s 739 mmHg 82%
    04:00 +14°C° 0 mm 2 m/s 739 mmHg 84%
    05:00 +14°C° 0 mm 2 m/s 739 mmHg 85%
    06:00 +16°C° 0 mm 2 m/s 739 mmHg 79%
    07:00 +18°C° 0 mm 2 m/s 739 mmHg 73%
    08:00 +20°C° 0 mm 2 m/s 739 mmHg 67%
    09:00 +23°C° 0 mm 2 m/s 739 mmHg 60%
    10:00 +24°C° 0 mm 2 m/s 740 mmHg 54%
    11:00 +25°C° 0 mm 2 m/s 740 mmHg 47%
    12:00 +25°C° 0 mm 2 m/s 740 mmHg 47%
    13:00 +25°C° 0 mm 2 m/s 740 mmHg 47%
    14:00 +26°C° 0 mm 2 m/s 740 mmHg 47%
    15:00 +25°C° 0 mm 3 m/s 740 mmHg 50%
    16:00 +25°C° 0 mm 3 m/s 740 mmHg 52%
    17:00 +24°C° 0 mm 3 m/s 740 mmHg 55%
    18:00 +21°C° 0 mm 3 m/s 739 mmHg 63%
    19:00 +20°C° 0 mm 2 m/s 739 mmHg 70%
    20:00 +18°C° 0 mm 2 m/s 739 mmHg 78%
    21:00 +17°C° 0 mm 2 m/s 740 mmHg 79%
    22:00 +16°C° 0 mm 2 m/s 740 mmHg 80%
    23:00 +15°C° 0 mm 2 m/s 740 mmHg 81%

    24 Julho, Quarta-feira

    Tempo Temperatura Precipitação Vento Pressão Humidade
    00:00 +14°C° 0 mm 2 m/s 740 mmHg 82%
    01:00 +14°C° 0 mm 2 m/s 740 mmHg 82%
    02:00 +13°C° 0 mm 2 m/s 740 mmHg 82%
    03:00 +13°C° 0 mm 2 m/s 740 mmHg 81%
    04:00 +13°C° 0 mm 2 m/s 740 mmHg 81%
    05:00 +13°C° 0 mm 2 m/s 740 mmHg 80%
    06:00 +15°C° 0 mm 2 m/s 741 mmHg 72%
    07:00 +17°C° 0 mm 2 m/s 741 mmHg 65%
    08:00 +19°C° 0 mm 3 m/s 741 mmHg 57%
    09:00 +21°C° 0 mm 3 m/s 741 mmHg 53%
    10:00 +22°C° 0 mm 3 m/s 741 mmHg 49%
    11:00 +24°C° 0 mm 3 m/s 741 mmHg 45%
    12:00 +24°C° 0 mm 3 m/s 741 mmHg 45%
    13:00 +25°C° 0 mm 4 m/s 741 mmHg 45%
    14:00 +25°C° 0 mm 4 m/s 741 mmHg 45%
    15:00 +25°C° 0 mm 4 m/s 741 mmHg 46%
    16:00 +23°C° 0 mm 4 m/s 741 mmHg 46%
    17:00 +23°C° 0 mm 4 m/s 741 mmHg 47%
    18:00 +21°C° 0 mm 3 m/s 741 mmHg 56%
    19:00 +19°C° 0 mm 2 m/s 741 mmHg 65%
    20:00 +17°C° 0 mm 2 m/s 741 mmHg 75%
    21:00 +16°C° 0 mm 2 m/s 741 mmHg 78%
    22:00 +15°C° 0 mm 2 m/s 742 mmHg 81%
    23:00 +15°C° 0 mm 1 m/s 742 mmHg 84%

    25 Julho, Quinta-feira

    Tempo Temperatura Precipitação Vento Pressão Humidade
    00:00 +14°C° 0 mm 2 m/s 742 mmHg 85%
    01:00 +14°C° 0 mm 2 m/s 742 mmHg 87%
    02:00 +14°C° 0 mm 2 m/s 743 mmHg 88%
    03:00 +14°C° 0 mm 2 m/s 743 mmHg 88%
    04:00 +14°C° 0 mm 2 m/s 743 mmHg 87%
    05:00 +14°C° 0 mm 2 m/s 743 mmHg 86%
    06:00 +16°C° 0 mm 2 m/s 743 mmHg 78%
    07:00 +19°C° 0 mm 2 m/s 743 mmHg 70%
    08:00 +21°C° 0 mm 2 m/s 743 mmHg 61%
    09:00 +22°C° 0 mm 3 m/s 743 mmHg 57%
    10:00 +24°C° 0 mm 3 m/s 743 mmHg 53%
    11:00 +26°C° 0 mm 4 m/s 743 mmHg 48%
    12:00 +26°C° 0.1 mm 4 m/s 743 mmHg 51%
    13:00 +25°C° 0.1 mm 4 m/s 743 mmHg 54%
    14:00 +25°C° 0.1 mm 3 m/s 743 mmHg 57%
    15:00 +24°C° 0.4 mm 3 m/s 743 mmHg 65%
    16:00 +22°C° 0.4 mm 3 m/s 742 mmHg 73%
    17:00 +21°C° 0.4 mm 3 m/s 742 mmHg 81%
    18:00 +20°C° 0 mm 2 m/s 742 mmHg 85%
    19:00 +19°C° 0 mm 2 m/s 743 mmHg 88%
    20:00 +18°C° 0 mm 2 m/s 743 mmHg 92%
    21:00 +17°C° 0 mm 2 m/s 743 mmHg 93%
    22:00 +17°C° 0 mm 2 m/s 743 mmHg 94%
    23:00 +16°C° 0 mm 2 m/s 743 mmHg 96%
    Mostrar mais